Location: Tauranga
(37.6860°S, 176.1670°E)
Time: 16:14:55
(UTC+13:00)

Helios 1B rocket - Pass Details

Date: 24 January 2019
Orbit: 575 x 586 km, 98.2° (Epoch: 16 February)

Event Time Altitude Azimuth Distance (km) Brightness Sun altitude
Exits shadow 23:00:41 84° 125° (SE) 594 2.3 -23.5°
Drops below altitude 10° 23:04:49 10° 191° (SSW) 1,923 5.9 -24.0°
Sets 23:06:59 0° 191° (SSW) 2,833 7.0 -24.2°
